Location: Seasalter
(51.3333°N, 1.0167°E)
Time: 12:18:44
(UTC+00:00)

SL-08 R/B - Pass Details

Date: 26 September 2023
Orbit: 670 x 736 km, 98.5° (Epoch: 28 November)

Event Time Altitude Azimuth Distance (km) Brightness Sun altitude
Rises 05:02:24 0° 167° (SSE) 3,058 6.7 -7.9°
Reaches altitude 10° 05:04:38 10° 168° (SSE) 2,155 5.9 -7.6°
Maximum altitude 05:09:21 79° 255° (WSW) 728 3.3 -6.8°
Drops below altitude 10° 05:14:14 10° 343° (NNW) 2,215 5.8 -6.1°
Sets 05:16:32 0° 345° (NNW) 3,149 6.6 -5.7°
